Weather in Pamplona

Spain     42°48′35″N   1°39′20″W
temp.,
°C
wind,
m/s
gust,
m/s
humid.,
%
clouds,
%
prec.,
mm/h
press.,
hPa
HPBL,
m
23 april, fri
fri2323:00+8ssw11915 0.0 101910
02:00+7ese11924 0.0 102010
05:00+6ese119215 0.0 102013
08:00+7se129040 0.0 102042
11:00+13s69635 0.0 10191097
14:00+17sse8104519 0.0 10181554
17:00+18sse81042100 0.0 10161720
20:00+15sse61250100 0.0 1017444
24 april, sat
sat2423:00+11s225674 0.0 101917
02:00+8s3368100 0.0 101950
05:00+7s227598 0.0 101934
08:00+6ssw238389 0.0 102047
11:00+13sse71252100 0.0 1018963
14:00+18sse81139100 0.0 10161346
17:00+19sse81144100 0.0 10151471
20:00+15sse41154100 0.0 1015391
25 april, sun
sun2523:00+12s3357100 0.1 101650
02:00+10ssw2260100 0.1 101640
05:00+11sw1160100 0.0 101526
08:00+10s2464100 0.0 1015108
11:00+9sse31094100 4.4 1016586
14:00+12s2580100 8.7 1014584
17:00+18sse61154100 0.0 10101519
20:00+16s2268100 0.2 100925
26 april, mon
mon2623:00+13s2369100 0.3 101054
02:00+10s2376100 0.6 101053
05:00+10s3777100 0.1 1008267
08:00+10sw2489100 0.8 1008239
11:00+11s1487100 0.8 1007435
14:00+12ese1485100 0.8 1006587
17:00+14nw1179100 0.0 1004396
20:00+12nnw1288100 0.2 100429
27 april, tue
tue2723:00+12nne0093100 0.7 100511
02:00+11nw1196100 1.3 100515
05:00+11nw1196100 0.4 100425
08:00+10nnw2296100 0.6 100568
11:00+11nnw1293100 0.1 1006198
14:00+14nnw347588 0.2 1005790
17:00+14n457838 0.2 1005656
20:00+12n358680 0.3 1006493